QPF
0.01 0.01 0.01 0.02 0.03 0.04 0.04 0.04 0.05 0.04 0.03 0.02 0.02 0.02 0.02 0.02 0.01 0.01 0.00 0.00 0.00 0.00 0.00 0.00 0.00 0.00 0.00 0.00 0.00 0.00 0.00 0.00 0.01 0.00 0.00 0.00 0.00 0.00 0.00 0.00 0.00 0.00 0.00
0.00 0.00 0.00 0.01 0.01 0.02 0.02 0.02 0.03 0.02 0.02 0.02 0.01 0.01 0.01 0.01 0.01 0.00 0.00 0.00 0.00 0.00 0.00 0.00 0.00 0.00 0.00 0.00 0.00 0.00 0.00 0.00 0.00 0.00 0.00 0.00 0.00 0.00 0.00 0.00 0.00 0.00 0.00
0.00 0.00 0.00 0.00 0.00 0.01 0.01 0.01 0.01 0.01 0.01 0.01 0.01 0.01 0.01 0.01 0.01 0.00 0.00 0.00 0.00 0.00 0.00 0.00 0.00 0.00 0.00 0.00 0.00 0.00 0.00 0.00 0.00 0.00 0.00 0.00 0.01 0.01 0.00 0.00 0.00 0.00 0.00
0.00 0.00 0.00 0.00 0.00 0.00 0.00 0.00 0.00 0.00 0.00 0.00 0.00 0.00 0.01 0.01 0.01 0.00 0.00 0.00 0.00 0.00 0.00 0.00 0.00 0.00 0.00 0.00 0.00 0.00 0.00 0.00 0.00 0.00 0.00 0.00 0.00 0.00 0.00 0.00 0.00 0.00 0.00
0.00 0.00 0.00 0.00 0.00 0.00 0.00 0.00 0.00 0.00 0.00 0.00 0.00 0.00 0.00 0.00 0.00 0.00 0.00 0.00 0.00 0.00 0.00 0.00 0.00 0.00 0.00 0.00 0.00 0.00 0.00 0.00 0.00 0.00 0.00 0.00 0.00 0.00 0.00 0.00 0.00 0.00 0.00
0.00 0.00 0.00 0.00 0.00 0.00 0.00 0.00 0.00 0.00 0.00 0.00 0.00 0.00 0.00 0.00 0.00 0.00 0.00 0.00 0.00 0.00 0.00 0.00 0.00 0.00 0.00 0.00 0.00 0.00 0.00 0.00 0.00 0.00 0.00 0.00 0.00 0.00 0.00 0.00 0.00 0.00 0.00
0.00 0.00 0.00 0.00 0.00 0.00 0.00 0.00 0.00 0.00 0.00 0.00 0.00 0.00 0.00 0.00 0.00 0.00 0.00 0.00 0.00 0.00 0.00 0.00 0.00 0.00 0.00 0.00 0.00 0.00 0.00 0.00 0.00 0.00 0.00 0.00 0.00 0.00 0.00 0.00 0.00 0.00 0.00
0.00 0.00 0.00 0.00 0.00 0.00 0.00 0.00 0.00 0.00 0.00 0.00 0.00 0.00 0.00 0.00 0.00 0.00 0.00 0.00 0.00 0.00 0.00 0.00 0.00 0.00 0.00 0.00 0.00 0.00 0.00 0.00 0.00 0.00 0.00 0.00 0.00 0.00 0.00 0.00 0.00 0.00 0.00
0.00 0.00 0.00 0.00 0.00 0.00 0.00 0.00 0.00 0.00 0.00 0.00 0.00 0.00 0.00 0.00 0.00 0.00 0.00 0.00 0.00 0.00 0.00 0.00 0.00 0.00 0.00 0.00 0.00 0.00 0.00 0.00 0.00 0.00 0.00 0.00 0.00 0.00 0.00 0.00 0.00 0.00 0.00
0.00 0.00 0.00 0.00 0.00 0.00 0.00 0.00 0.00 0.00 0.00 0.00 0.00 0.00 0.00 0.00 0.00 0.00 0.00 0.00 0.00 0.00 0.00 0.00 0.00 0.00 0.00 0.00 0.00 0.00 0.00 0.00 0.00 0.00 0.00 0.00 0.00 0.00 0.00 0.00 0.00 0.00 0.00
0.00 0.00 0.00 0.00 0.00 0.00 0.00 0.00 0.00 0.00 0.00 0.00 0.00 0.00 0.00 0.00 0.00 0.00 0.00 0.00 0.00 0.00 0.00 0.00 0.00 0.00 0.00 0.00 0.00 0.00 0.00 0.00 0.00 0.00 0.00 0.00 0.00 0.00 0.00 0.00 0.00 0.00 0.00
0.00 0.00 0.00 0.00 0.00 0.00 0.00 0.00 0.00 0.00 0.00 0.00 0.00 0.00 0.00 0.00 0.00 0.00 0.00 0.00 0.00 0.00 0.00 0.00 0.00 0.00 0.00 0.00 0.00 0.00 0.00 0.00 0.00 0.00 0.00 0.00 0.00 0.00 0.00 0.00 0.00 0.00 0.00
0.00 0.00 0.00 0.00 0.00 0.00 0.00 0.01 0.01 0.01 0.01 0.00 0.00 0.00 0.00 0.00 0.00 0.00 0.00 0.00 0.00 0.00 0.00 0.00 0.00 0.00 0.00 0.00 0.00 0.00 0.00 0.00 0.00 0.00 0.00 0.00 0.00 0.00 0.00 0.00 0.00 0.00 0.00
0.00 0.01 0.01 0.01 0.01 0.01 0.01 0.01 0.01 0.01 0.01 0.00 0.00 0.00 0.00 0.00 0.00 0.00 0.00 0.00 0.00 0.00 0.00 0.00 0.00 0.00 0.00 0.00 0.00 0.00 0.00 0.00 0.00 0.00 0.00 0.00 0.00 0.00 0.00 0.00 0.00 0.00 0.00
0.01 0.01 0.01 0.01 0.01 0.01 0.01 0.01 0.02 0.02 0.02 0.01 0.01 0.01 0.00 0.00 0.00 0.00 0.00 0.00 0.00 0.00 0.00 0.00 0.00 0.00 0.00 0.00 0.00 0.00 0.00 0.00 0.00 0.00 0.00 0.00 0.00 0.00 0.00 0.00 0.00 0.00 0.00
0.01 0.01 0.01 0.01 0.02 0.02 0.02 0.03 0.03 0.03 0.03 0.03 0.02 0.01 0.01 0.00 0.00 0.00 0.00 0.00 0.00 0.00 0.00 0.00 0.00 0.00 0.00 0.00 0.00 0.00 0.00 0.00 0.00 0.00 0.00 0.00 0.00 0.00 0.00 0.00 0.00 0.00 0.00
0.01 0.02 0.03 0.03 0.03 0.03 0.03 0.03 0.03 0.03 0.03 0.03 0.02 0.02 0.01 0.01 0.01 0.00 0.00 0.00 0.00 0.00 0.00 0.00 0.00 0.00 0.00 0.00 0.00 0.00 0.00 0.00 0.00 0.00 0.00 0.00 0.00 0.00 0.00 0.00 0.00 0.00 0.00
0.02 0.03 0.04 0.05 0.06 0.06 0.06 0.05 0.04 0.04 0.03 0.03 0.03 0.03 0.03 0.02 0.02 0.02 0.01 0.01 0.01 0.00 0.00 0.00 0.00 0.00 0.00 0.00 0.00 0.01 0.01 0.01 0.00 0.00 0.00 0.00 0.00 0.00 0.00 0.00 0.00 0.00 0.00
0.02 0.03 0.04 0.05 0.07 0.08 0.08 0.07 0.06 0.05 0.04 0.03 0.03 0.03 0.04 0.04 0.04 0.03 0.03 0.02 0.01 0.00 0.00 0.00 0.01 0.01 0.01 0.01 0.01 0.01 0.01 0.01 0.01 0.01 0.00 0.00 0.00 0.00 0.00 0.00 0.00 0.00 0.00
0.02 0.03 0.04 0.05 0.05 0.07 0.08 0.07 0.06 0.05 0.04 0.03 0.03 0.02 0.03 0.04 0.03 0.02 0.02 0.02 0.02 0.01 0.01 0.01 0.01 0.01 0.01 0.01 0.01 0.01 0.02 0.01 0.01 0.01 0.01 0.01 0.01 0.01 0.01 0.00 0.00 0.00 0.00
0.03 0.04 0.05 0.05 0.05 0.05 0.06 0.06 0.05 0.04 0.04 0.03 0.03 0.03 0.04 0.04 0.03 0.02 0.01 0.02 0.02 0.02 0.01 0.01 0.01 0.01 0.01 0.01 0.01 0.01 0.01 0.01 0.01 0.01 0.01 0.01 0.01 0.01 0.01 0.01 0.01 0.01 0.01
0.04 0.04 0.05 0.05 0.05 0.05 0.05 0.05 0.05 0.04 0.04 0.03 0.03 0.04 0.05 0.04 0.02 0.02 0.01 0.02 0.02 0.02 0.02 0.02 0.02 0.02 0.02 0.02 0.02 0.02 0.02 0.01 0.01 0.02 0.02 0.02 0.01 0.01 0.01 0.01 0.01 0.01 0.01
0.04 0.05 0.05 0.06 0.05 0.06 0.06 0.05 0.05 0.04 0.04 0.04 0.04 0.04 0.04 0.04 0.03 0.02 0.02 0.02 0.03 0.03 0.03 0.03 0.02 0.02 0.02 0.02 0.02 0.02 0.01 0.01 0.01 0.02 0.02 0.02 0.01 0.01 0.01 0.01 0.01 0.01 0.01
0.05 0.05 0.06 0.05 0.05 0.05 0.05 0.05 0.04 0.04 0.04 0.04 0.04 0.04 0.04 0.04 0.04 0.03 0.03 0.03 0.03 0.02 0.02 0.02 0.02 0.02 0.02 0.02 0.02 0.02 0.02 0.02 0.02 0.02 0.02 0.02 0.02 0.01 0.02 0.01 0.01 0.01 0.01
0.05 0.05 0.06 0.05 0.05 0.04 0.04 0.04 0.04 0.04 0.04 0.04 0.04 0.04 0.04 0.04 0.04 0.03 0.03 0.03 0.02 0.02 0.02 0.02 0.02 0.02 0.02 0.02 0.02 0.02 0.02 0.02 0.02 0.02 0.02 0.02 0.02 0.01 0.01 0.01 0.01 0.01 0.01
0.05 0.06 0.05 0.05 0.05 0.04 0.04 0.04 0.04 0.04 0.03 0.03 0.03 0.04 0.04 0.04 0.03 0.03 0.03 0.02 0.02 0.02 0.01 0.01 0.01 0.01 0.02 0.02 0.02 0.02 0.02 0.02 0.02 0.02 0.02 0.02 0.02 0.01 0.01 0.01 0.01 0.01 0.01
MSLP
1013.65 1013.48 1013.34 1013.27 1013.30 1013.46 1013.74 1014.15 1014.65 1015.22 1015.80 1016.36 1016.86 1017.29 1017.64 1017.92 1018.16 1018.39 1018.62 1018.88 1019.17 1019.48 1019.78 1020.05 1020.27 1020.41 1020.47 1020.45 1020.38 1020.27 1020.18 1020.13 1020.13 1020.21 1020.36 1020.55 1020.76 1020.97 1021.14 1021.26 1021.33 1021.35 1021.32
1014.09 1013.86 1013.67 1013.56 1013.56 1013.70 1013.98 1014.38 1014.89 1015.45 1016.03 1016.58 1017.06 1017.47 1017.80 1018.06 1018.28 1018.48 1018.70 1018.95 1019.23 1019.54 1019.84 1020.12 1020.34 1020.49 1020.56 1020.55 1020.48 1020.39 1020.32 1020.28 1020.30 1020.40 1020.56 1020.77 1020.99 1021.21 1021.40 1021.54 1021.62 1021.66 1021.65
1014.44 1014.17 1013.95 1013.82 1013.80 1013.93 1014.19 1014.59 1015.08 1015.63 1016.18 1016.72 1017.18 1017.57 1017.88 1018.12 1018.33 1018.54 1018.75 1019.01 1019.29 1019.61 1019.92 1020.20 1020.43 1020.59 1020.67 1020.68 1020.63 1020.56 1020.50 1020.49 1020.53 1020.64 1020.81 1021.03 1021.27 1021.50 1021.70 1021.85 1021.95 1021.99 1022.00
1014.65 1014.37 1014.13 1013.99 1013.97 1014.09 1014.35 1014.73 1015.21 1015.73 1016.27 1016.77 1017.21 1017.58 1017.88 1018.12 1018.33 1018.54 1018.77 1019.04 1019.34 1019.66 1019.99 1020.29 1020.53 1020.71 1020.80 1020.83 1020.81 1020.76 1020.73 1020.73 1020.79 1020.91 1021.09 1021.32 1021.56 1021.79 1022.00 1022.16 1022.27 1022.33 1022.35
1014.73 1014.44 1014.21 1014.08 1014.07 1014.19 1014.45 1014.82 1015.27 1015.77 1016.28 1016.76 1017.18 1017.53 1017.81 1018.06 1018.28 1018.50 1018.75 1019.03 1019.35 1019.70 1020.04 1020.35 1020.61 1020.81 1020.93 1020.98 1020.98 1020.96 1020.95 1020.97 1021.04 1021.17 1021.36 1021.58 1021.82 1022.05 1022.26 1022.43 1022.55 1022.62 1022.64
1014.69 1014.41 1014.19 1014.08 1014.09 1014.22 1014.48 1014.85 1015.29 1015.76 1016.25 1016.70 1017.09 1017.43 1017.71 1017.95 1018.18 1018.41 1018.68 1018.98 1019.32 1019.68 1020.04 1020.37 1020.65 1020.86 1021.01 1021.09 1021.12 1021.12 1021.13 1021.17 1021.25 1021.38 1021.57 1021.78 1022.02 1022.25 1022.45 1022.62 1022.74 1022.82 1022.86
1014.56 1014.29 1014.09 1014.00 1014.03 1014.19 1014.46 1014.83 1015.26 1015.72 1016.18 1016.60 1016.98 1017.30 1017.57 1017.81 1018.04 1018.28 1018.56 1018.87 1019.22 1019.59 1019.96 1020.31 1020.61 1020.85 1021.02 1021.13 1021.19 1021.22 1021.25 1021.30 1021.39 1021.52 1021.70 1021.90 1022.12 1022.34 1022.54 1022.71 1022.84 1022.93 1022.98
1014.39 1014.12 1013.94 1013.87 1013.92 1014.10 1014.38 1014.75 1015.18 1015.63 1016.07 1016.48 1016.84 1017.14 1017.40 1017.63 1017.86 1018.10 1018.38 1018.69 1019.05 1019.42 1019.80 1020.16 1020.48 1020.74 1020.94 1021.08 1021.17 1021.23 1021.29 1021.35 1021.45 1021.58 1021.74 1021.93 1022.14 1022.34 1022.54 1022.70 1022.84 1022.94 1023.01
1014.21 1013.93 1013.75 1013.69 1013.76 1013.95 1014.24 1014.62 1015.05 1015.50 1015.93 1016.32 1016.66 1016.95 1017.20 1017.42 1017.63 1017.87 1018.14 1018.44 1018.79 1019.17 1019.55 1019.92 1020.25 1020.54 1020.77 1020.94 1021.06 1021.16 1021.24 1021.32 1021.43 1021.55 1021.71 1021.89 1022.08 1022.27 1022.46 1022.63 1022.77 1022.89 1022.97
1014.05 1013.75 1013.55 1013.48 1013.55 1013.74 1014.03 1014.41 1014.84 1015.28 1015.71 1016.10 1016.43 1016.71 1016.94 1017.15 1017.36 1017.58 1017.83 1018.13 1018.47 1018.84 1019.22 1019.60 1019.95 1020.26 1020.52 1020.72 1020.89 1021.02 1021.13 1021.23 1021.35 1021.48 1021.63 1021.80 1021.98 1022.17 1022.35 1022.52 1022.68 1022.81 1022.92
1013.93 1013.59 1013.35 1013.25 1013.29 1013.46 1013.75 1014.12 1014.54 1014.98 1015.40 1015.78 1016.11 1016.38 1016.61 1016.82 1017.02 1017.23 1017.47 1017.76 1018.09 1018.45 1018.83 1019.22 1019.58 1019.92 1020.21 1020.46 1020.66 1020.82 1020.97 1021.10 1021.23 1021.37 1021.52 1021.69 1021.87 1022.05 1022.24 1022.42 1022.59 1022.74 1022.88
1013.87 1013.46 1013.17 1013.02 1013.01 1013.14 1013.39 1013.73 1014.13 1014.56 1014.97 1015.35 1015.68 1015.96 1016.20 1016.41 1016.61 1016.82 1017.06 1017.34 1017.67 1018.03 1018.41 1018.80 1019.19 1019.54 1019.87 1020.15 1020.39 1020.59 1020.77 1020.93 1021.08 1021.24 1021.40 1021.57 1021.75 1021.94 1022.14 1022.33 1022.52 1022.70 1022.86
1013.84 1013.37 1013.01 1012.78 1012.70 1012.77 1012.97 1013.27 1013.63 1014.04 1014.44 1014.81 1015.15 1015.44 1015.69 1015.91 1016.13 1016.35 1016.60 1016.89 1017.22 1017.58 1017.97 1018.37 1018.77 1019.14 1019.49 1019.81 1020.08 1020.32 1020.53 1020.72 1020.90 1021.07 1021.25 1021.44 1021.64 1021.84 1022.05 1022.26 1022.47 1022.67 1022.86
1013.85 1013.30 1012.87 1012.56 1012.40 1012.39 1012.52 1012.75 1013.07 1013.43 1013.81 1014.17 1014.52 1014.82 1015.09 1015.34 1015.58 1015.82 1016.09 1016.39 1016.73 1017.10 1017.50 1017.91 1018.32 1018.71 1019.08 1019.42 1019.72 1019.99 1020.23 1020.45 1020.66 1020.86 1021.06 1021.27 1021.48 1021.71 1021.94 1022.17 1022.40 1022.62 1022.83
1013.86 1013.26 1012.75 1012.36 1012.11 1012.02 1012.05 1012.21 1012.46 1012.76 1013.11 1013.46 1013.79 1014.11 1014.40 1014.68 1014.95 1015.23 1015.53 1015.85 1016.21 1016.59 1016.99 1017.41 1017.82 1018.22 1018.61 1018.96 1019.28 1019.57 1019.84 1020.09 1020.32 1020.55 1020.78 1021.02 1021.26 1021.51 1021.76 1022.01 1022.26 1022.50 1022.73
1013.85 1013.21 1012.64 1012.18 1011.85 1011.66 1011.61 1011.67 1011.84 1012.08 1012.37 1012.68 1013.01 1013.33 1013.64 1013.95 1014.25 1014.56 1014.89 1015.24 1015.61 1016.01 1016.42 1016.83 1017.25 1017.65 1018.04 1018.40 1018.73 1019.04 1019.33 1019.60 1019.86 1020.12 1020.38 1020.65 1020.92 1021.20 1021.47 1021.75 1022.02 1022.27 1022.51
1013.79 1013.13 1012.53 1012.02 1011.62 1011.34 1011.19 1011.16 1011.23 1011.39 1011.61 1011.88 1012.18 1012.49 1012.81 1013.14 1013.47 1013.81 1014.17 1014.54 1014.93 1015.34 1015.75 1016.17 1016.58 1016.98 1017.36 1017.72 1018.05 1018.37 1018.68 1018.97 1019.26 1019.55 1019.85 1020.14 1020.45 1020.75 1021.05 1021.35 1021.63 1021.90 1022.14
1013.65 1013.00 1012.39 1011.85 1011.39 1011.03 1010.79 1010.66 1010.64 1010.71 1010.85 1011.06 1011.32 1011.61 1011.93 1012.26 1012.61 1012.98 1013.36 1013.75 1014.16 1014.57 1014.98 1015.39 1015.79 1016.18 1016.56 1016.91 1017.25 1017.58 1017.90 1018.21 1018.53 1018.84 1019.17 1019.50 1019.83 1020.16 1020.49 1020.81 1021.10 1021.38 1021.62
1013.42 1012.80 1012.20 1011.64 1011.14 1010.72 1010.40 1010.18 1010.06 1010.04 1010.10 1010.24 1010.45 1010.70 1011.01 1011.34 1011.70 1012.08 1012.48 1012.89 1013.30 1013.71 1014.12 1014.53 1014.92 1015.29 1015.66 1016.01 1016.35 1016.68 1017.01 1017.34 1017.68 1018.02 1018.38 1018.73 1019.10 1019.45 1019.80 1020.14 1020.45 1020.73 1020.98
1013.09 1012.52 1011.94 1011.38 1010.85 1010.39 1010.00 1009.70 1009.49 1009.37 1009.35 1009.42 1009.57 1009.79 1010.07 1010.39 1010.76 1011.15 1011.55 1011.97 1012.39 1012.80 1013.21 1013.60 1013.98 1014.34 1014.70 1015.04 1015.38 1015.72 1016.06 1016.41 1016.77 1017.14 1017.51 1017.90 1018.28 1018.66 1019.03 1019.38 1019.70 1019.99 1020.25
1012.67 1012.15 1011.60 1011.05 1010.52 1010.02 1009.57 1009.20 1008.92 1008.72 1008.63 1008.63 1008.73 1008.91 1009.16 1009.47 1009.83 1010.22 1010.63 1011.05 1011.47 1011.88 1012.28 1012.67 1013.03 1013.39 1013.73 1014.07 1014.41 1014.75 1015.10 1015.47 1015.84 1016.23 1016.63 1017.04 1017.44 1017.84 1018.22 1018.58 1018.92 1019.22 1019.48
1012.19 1011.71 1011.20 1010.67 1010.13 1009.61 1009.13 1008.71 1008.36 1008.11 1007.95 1007.89 1007.94 1008.09 1008.32 1008.61 1008.97 1009.36 1009.77 1010.20 1010.61 1011.02 1011.42 1011.79 1012.15 1012.50 1012.83 1013.17 1013.50 1013.85 1014.21 1014.58 1014.97 1015.38 1015.79 1016.21 1016.63 1017.04 1017.43 1017.80 1018.14 1018.45 1018.73
1011.67 1011.23 1010.76 1010.25 1009.72 1009.20 1008.69 1008.24 1007.86 1007.56 1007.36 1007.26 1007.28 1007.40 1007.61 1007.89 1008.24 1008.63 1009.04 1009.47 1009.88 1010.29 1010.68 1011.04 1011.39 1011.72 1012.05 1012.38 1012.71 1013.06 1013.42 1013.80 1014.20 1014.61 1015.03 1015.46 1015.88 1016.29 1016.69 1017.06 1017.41 1017.73 1018.01
1011.15 1010.75 1010.31 1009.83 1009.32 1008.81 1008.31 1007.84 1007.44 1007.12 1006.90 1006.78 1006.78 1006.88 1007.08 1007.36 1007.70 1008.08 1008.50 1008.92 1009.33 1009.72 1010.10 1010.45 1010.79 1011.11 1011.43 1011.75 1012.08 1012.42 1012.78 1013.16 1013.56 1013.97 1014.39 1014.81 1015.23 1015.63 1016.02 1016.39 1016.73 1017.05 1017.34
1010.66 1010.30 1009.90 1009.45 1008.98 1008.49 1008.01 1007.56 1007.16 1006.84 1006.62 1006.49 1006.48 1006.58 1006.77 1007.04 1007.37 1007.75 1008.15 1008.56 1008.96 1009.35 1009.71 1010.05 1010.37 1010.68 1010.98 1011.29 1011.61 1011.94 1012.30 1012.67 1013.05 1013.45 1013.86 1014.27 1014.67 1015.06 1015.43 1015.78 1016.11 1016.41 1016.68
1010.22 1009.91 1009.55 1009.16 1008.73 1008.29 1007.84 1007.42 1007.05 1006.75 1006.54 1006.42 1006.41 1006.50 1006.68 1006.94 1007.26 1007.63 1008.01 1008.40 1008.78 1009.15 1009.49 1009.81 1010.12 1010.41 1010.70 1010.99 1011.29 1011.61 1011.95 1012.30 1012.67 1013.05 1013.44 1013.82 1014.19 1014.55 1014.89 1015.21 1015.50 1015.77 1016.02
Thickness
5592 5592 5593 5593 5593 5593 5592 5590 5589 5587 5584 5581 5578 5574 5571 5568 5565 5563 5560 5557 5554 5551 5549 5547 5544 5541 5538 5536 5533 5532 5530 5529 5530 5525 5519 5515 5512 5509 5507 5505 5504 5503 5503
5581 5581 5582 5582 5582 5581 5580 5579 5578 5575 5573 5570 5567 5564 5560 5557 5554 5552 5549 5546 5543 5540 5538 5535 5532 5529 5526 5523 5520 5518 5517 5515 5515 5514 5507 5503 5500 5497 5495 5493 5492 5491 5491
5569 5570 5570 5570 5570 5569 5568 5567 5565 5564 5561 5558 5555 5552 5549 5546 5543 5541 5538 5535 5532 5529 5527 5524 5521 5518 5515 5511 5508 5506 5504 5503 5502 5501 5497 5492 5488 5486 5483 5482 5480 5480 5479
5556 5558 5558 5558 5558 5557 5556 5554 5553 5551 5549 5546 5543 5541 5538 5535 5532 5529 5526 5523 5520 5518 5515 5512 5510 5507 5503 5500 5497 5494 5492 5491 5490 5488 5486 5481 5477 5474 5473 5470 5469 5468 5467
5544 5545 5546 5546 5545 5544 5543 5542 5541 5539 5537 5534 5532 5529 5526 5523 5521 5519 5516 5513 5509 5506 5503 5501 5498 5496 5493 5489 5486 5483 5480 5478 5477 5476 5474 5471 5467 5464 5462 5460 5459 5457 5457
5533 5534 5534 5534 5533 5532 5531 5530 5528 5526 5524 5522 5520 5518 5515 5513 5511 5509 5506 5502 5499 5495 5492 5489 5487 5484 5482 5479 5476 5473 5470 5468 5466 5464 5462 5461 5457 5455 5452 5451 5449 5448 5448
5522 5523 5523 5522 5522 5521 5520 5518 5516 5514 5513 5511 5509 5507 5505 5503 5502 5500 5496 5492 5488 5485 5481 5478 5475 5473 5470 5466 5464 5461 5460 5459 5457 5454 5452 5450 5448 5446 5443 5441 5440 5438 5438
5509 5511 5511 5511 5510 5509 5508 5507 5505 5504 5502 5500 5498 5497 5494 5493 5492 5490 5486 5481 5477 5474 5471 5468 5465 5461 5459 5455 5452 5449 5447 5446 5445 5444 5443 5441 5440 5438 5436 5434 5432 5430 5429
5497 5498 5499 5499 5499 5498 5497 5496 5495 5493 5491 5489 5488 5486 5484 5483 5482 5480 5476 5470 5466 5463 5460 5458 5455 5452 5450 5447 5443 5440 5437 5436 5435 5435 5433 5432 5431 5429 5427 5425 5423 5421 5421
5484 5486 5488 5489 5489 5488 5488 5486 5484 5483 5481 5479 5477 5476 5474 5473 5472 5470 5467 5460 5456 5453 5450 5448 5447 5444 5442 5440 5435 5431 5428 5427 5426 5425 5423 5422 5421 5420 5419 5417 5416 5412 5412
5471 5474 5476 5477 5478 5478 5477 5475 5474 5472 5470 5468 5467 5466 5464 5463 5463 5462 5459 5452 5449 5445 5442 5439 5438 5437 5435 5433 5429 5424 5423 5421 5418 5416 5414 5413 5412 5411 5411 5409 5408 5406 5404
5459 5461 5463 5465 5466 5466 5465 5464 5463 5462 5460 5459 5457 5456 5455 5454 5454 5453 5452 5447 5443 5439 5436 5433 5431 5430 5428 5426 5423 5419 5418 5415 5411 5408 5407 5406 5404 5404 5403 5402 5400 5399 5397
5445 5448 5450 5452 5453 5454 5455 5454 5453 5452 5452 5452 5450 5449 5448 5446 5445 5445 5444 5442 5438 5433 5430 5427 5425 5423 5421 5419 5417 5414 5412 5408 5405 5403 5401 5400 5399 5398 5396 5394 5392 5391 5390
5431 5435 5438 5440 5442 5443 5444 5445 5445 5445 5445 5444 5443 5442 5441 5439 5437 5437 5436 5434 5432 5428 5424 5422 5420 5418 5415 5412 5410 5408 5405 5402 5400 5398 5397 5395 5393 5391 5389 5387 5385 5383 5381
5418 5422 5425 5428 5430 5432 5434 5436 5437 5439 5440 5439 5438 5437 5435 5434 5435 5433 5429 5427 5424 5421 5417 5413 5411 5408 5407 5405 5403 5401 5399 5397 5396 5393 5391 5389 5387 5385 5383 5380 5377 5375 5372
5405 5409 5413 5415 5418 5421 5423 5426 5428 5430 5431 5432 5432 5431 5431 5431 5430 5428 5426 5423 5420 5417 5412 5408 5406 5404 5402 5400 5398 5396 5394 5393 5391 5389 5386 5384 5382 5379 5376 5373 5369 5366 5364
5391 5396 5400 5404 5407 5410 5413 5416 5418 5420 5422 5424 5425 5425 5424 5424 5423 5421 5420 5418 5415 5412 5409 5405 5402 5401 5399 5397 5395 5393 5391 5389 5387 5384 5382 5378 5375 5372 5369 5366 5363 5359 5357
5377 5383 5388 5392 5397 5401 5404 5406 5409 5412 5414 5416 5417 5418 5418 5418 5417 5415 5414 5411 5409 5408 5405 5403 5400 5398 5396 5393 5391 5389 5388 5385 5382 5380 5377 5373 5370 5366 5362 5359 5356 5353 5351
5363 5369 5375 5380 5385 5390 5394 5396 5399 5402 5405 5407 5408 5409 5411 5411 5411 5410 5409 5407 5406 5404 5402 5400 5398 5395 5393 5391 5389 5387 5384 5382 5379 5375 5372 5368 5365 5360 5357 5354 5351 5349 5346
5349 5355 5361 5367 5372 5378 5382 5386 5390 5393 5396 5399 5401 5402 5402 5402 5403 5404 5404 5403 5402 5401 5399 5397 5395 5393 5390 5388 5386 5383 5380 5378 5375 5371 5368 5364 5361 5356 5353 5349 5346 5342 5340
5334 5342 5348 5355 5360 5366 5372 5377 5381 5385 5388 5391 5393 5395 5396 5396 5398 5398 5399 5398 5398 5397 5395 5393 5392 5390 5387 5385 5382 5379 5377 5374 5371 5368 5364 5361 5356 5352 5349 5345 5342 5338 5334
5321 5329 5336 5342 5348 5354 5361 5367 5372 5376 5379 5382 5384 5386 5389 5389 5390 5391 5392 5393 5393 5392 5391 5389 5388 5386 5384 5382 5379 5376 5373 5371 5367 5364 5360 5356 5352 5348 5344 5340 5336 5332 5328
5309 5316 5324 5330 5336 5343 5349 5355 5361 5366 5370 5373 5375 5377 5379 5382 5383 5384 5385 5386 5385 5385 5385 5383 5382 5381 5379 5377 5375 5373 5370 5368 5364 5360 5356 5351 5347 5343 5339 5335 5330 5326 5322
5299 5305 5312 5319 5325 5331 5338 5344 5350 5355 5360 5364 5367 5369 5371 5373 5375 5376 5377 5377 5378 5378 5377 5377 5377 5376 5374 5371 5369 5367 5365 5362 5359 5355 5351 5347 5342 5338 5333 5329 5325 5321 5316
5290 5296 5302 5308 5315 5321 5327 5334 5339 5345 5350 5354 5357 5360 5362 5364 5365 5367 5368 5368 5369 5369 5369 5369 5369 5368 5366 5365 5362 5360 5358 5355 5352 5348 5344 5340 5336 5332 5327 5323 5318 5314 5309
5282 5287 5293 5299 5305 5312 5318 5324 5330 5335 5339 5343 5347 5350 5352 5354 5356 5357 5358 5359 5360 5360 5361 5360 5360 5359 5358 5357 5355 5353 5350 5348 5345 5341 5337 5333 5329 5325 5320 5316 5311 5306 5302